Hourly Data Report for October 29, 2016

All times are specified in Local Standard Time (LST). Add 1 hour to adjust for Daylight Saving Time where and when it is observed.

IQALUIT CLIMATE
NUNAVUT

63°44'50.000" N
68°32'40.000" W
33.50 m
2402592
71321
XFB

Download Data

Hourly Data (October 2016)
Hourly Data Report for October 29, 2016
Temp Definition
°C
Dew Point Temp Definition
°C
Rel Hum Definition
%
Wind Dir Definition
10's deg

Wind Spd Definition
km/h
Visibility Definition
km
Stn Press Definition
kPa
Hmdx Definition


Wind Chill Definition


Weather Definition


TIME
00:00 -2.3 -3.4 92 13 37   99.64   -10 LegendNANA
01:00 -1.9 -3.4 90 13 34   99.57   -9 LegendNANA
02:00 -2.0 -3.7 88 13 38   99.47   -10 LegendNANA
03:00 -2.2 -3.0 94 13 35   99.40   -10 LegendNANA
04:00 -2.2 -2.8 95 12 34   99.31   -10 LegendNANA
05:00 -2.1 -2.5 97 13 38   99.25   -10 LegendNANA
06:00 -1.0 -2.1 93 13 35   99.21   -8 LegendNANA
07:00 -0.7 -2.1 90 15 34   99.19   -8 LegendNANA
08:00 -1.0 -5.1 73 20 29   99.20   -8 LegendNANA
09:00 -1.2 -5.2 74 20 5   99.25   -3 LegendNANA
10:00
11:00 -5.1 -6.5 90 31 25   99.39   -12 LegendNANA
12:00 -5.8 -7.2 90 31 27   99.54   -14 LegendNANA
13:00 -6.7 -7.6 94 30 36   99.69   -16 LegendNANA
14:00 -6.1 -8.3 84 29 31   99.81   -15 LegendNANA
15:00 -6.3 -9.6 77 29 38   99.93   -16 LegendNANA
16:00 -6.3 -10.3 73 29 29   100.05   -15 LegendNANA
17:00 -6.9 -11.5 70 29 21   100.09   -14 LegendNANA
18:00 -9.2 -12.3 78 34 6   100.18   -13 LegendNANA
19:00 -8.1 -11.7 75 34 3   100.23   -10 LegendNANA
20:00 -9.3 -11.7 83 7 6   100.25   -13 LegendNANA
21:00 -9.1 -13.2 72 9 2   100.22   -10 LegendNANA
22:00 -7.5 -12.0 70 13 8   100.17   -12 LegendNANA
23:00 -7.0 -11.6 70 12 19   100.14   -14 LegendNANA

Notes on Data Quality.

Legend

  • E = Estimated
  • M = Missing
  • NA = Not Available
  • ‡ = Partner data that is not subject to review by the National Climate Archives
Date modified: